Other Public Products
Issued by NWS Grand Forks, ND

Home | Current Version | Previous Version | Text Only | Print | Product List | Glossary Off
Versions: 1 2 3 4 5 6 7 8 9 10 11 12 13 14 15 16 17 18 19 20 21 22 23 24 25 26 27 28 29 30 31 32 33 34 35 36 37 38 39 40 41 42 43 44 45 46 47 48 49 50

000
FPUS83 KFGF 280031
OPUFGF
PRAIRIE TO PINES WEATHER ROUNDUP
NATIONAL WEATHER SERVICE EASTERN NORTH DAKOTA/GRAND FORKS ND
700 PM CDT MON JUL 27 2015

 **SATELLITE DATA USED TO AUGMENT SKY COVER AT AUTOMATED STATIONS**
 *****  WEATHER ACROSS EASTERN NORTH DAKOTA  *****

CITY           SKY/WX    TMP DP  RH WIND       PRES   REMARKS
GRAND FORKS    SUNNY     85  71  63 SE17G25   29.74F HX  90
6HR MIN TEMP:  83; 6HR MAX TEMP:  88;

GRAND FORKS AF SUNNY     85  73  66 SE17      29.74F HX  91
GRAND CITY NWS   N/A     84 N/A N/A S13         N/A
BUXTON         NOT AVBL
DEVILS LAKE    SUNNY     82  70  65 SE17G23   29.72S
6HR MIN TEMP:  82; 6HR MAX TEMP:  84;

FARGO          SUNNY     88  70  55 SE18G26   29.76S HX  93
6HR MIN TEMP:  84; 6HR MAX TEMP:  91;

WAHPETON ARPT  CLEAR     84  70  61 SE14      29.78S
$$

 *****  WEATHER ACROSS CENTRAL AND WESTERN NORTH DAKOTA  *****

CITY           SKY/WX    TMP DP  RH WIND       PRES   REMARKS
JAMESTOWN      MOSUNNY   87  75  67 SE14G24   29.72S HX  96
6HR MIN TEMP:  83; 6HR MAX TEMP:  89;

BISMARCK       MOSUNNY   88  70  55 SE15G25   29.65R HX  93
6HR MIN TEMP:  86; 6HR MAX TEMP:  93;

MINOT          PTSUNNY   88  66  48 SE14      29.63F HX  90
6HR MIN TEMP:  85; 6HR MAX TEMP:  92;

MINOT AFB      PTSUNNY   87  72  61 SE12      29.62F HX  93
6HR MIN TEMP:  84; 6HR MAX TEMP:  91;

GARRISON         N/A     84  68  58 SE13      29.62F
6HR MIN TEMP:  80; 6HR MAX TEMP:  87;

WILLISTON      PTSUNNY   90  66  45 SE17G25   29.56F HX  92
6HR MIN TEMP:  85; 6HR MAX TEMP:  92;

DICKINSON      CLOUDY    83  64  52 SE18G25   29.60F
6HR MIN TEMP:  83; 6HR MAX TEMP:  90;

HETTINGER      CLOUDY    83  62  49 SE12G25   29.62F
6HR MIN TEMP:  82; 6HR MAX TEMP:  92; 6HR PCP: TRACE;

$$

 *****  OTHER OBSERVATIONS NORTHEAST NORTH DAKOTA  *****

CITY           SKY/WX    TMP DP  RH WIND       PRES   REMARKS
WALHALLA       FAIR      82  73  74 MISG      29.76S
LANGDON        FAIR      82  72  69 SE16      29.78F
CAVALIER       FAIR      82  72  69 SE9G17    29.76S
GRAFTON        FAIR      84  73  70 SE17      29.75F HX  91
CANDO          FAIR      81  73  78 SE16G23   29.72F
FORT TOTTEN      N/A     84  73  68 SE10      29.95  HX  90
ROLLA            N/A     77  72  83 SE15      29.75F
RUGBY          NOT AVBL
 ***** THE ABOVE OBSERVATIONS ARE NON NWS ARE NOT QUALITY
        CONTROLLED AND MAY MIS-REPORT RAIN FOR SNOW...
$$

 *****  OTHER OBSERVATIONS SOUTHEAST NORTH DAKOTA *****

CITY           SKY/WX    TMP DP  RH WIND       PRES   REMARKS
COOPERSTOWN    NOT AVBL
VALLEY CITY    FAIR      84  75  74 SE16G23   29.75S HX  92
OAKES            N/A     88  75  66 SE14G23   29.72F HX  97
GWINNER        FAIR      84  77  79 SE17G24   29.75S HX  94
SHEYENNE NWR     N/A     86  74  66 SE13      29.95  HX  94
BUFFALO        NOT AVBL
WYNDMERE         N/A     84  75  74 SE12        N/A  HX  92
 ***** THE ABOVE OBSERVATIONS ARE NON NWS ARE NOT QUALITY
       CONTROLLED AND MAY MIS-REPORT RAIN FOR SNOW...
$$

  *****  WEATHER ACROSS NORTHERN MINNESOTA  *****

CITY           SKY/WX    TMP DP  RH WIND       PRES   REMARKS
FLAG ISLAND    SUNNY     82  70  65 SE7       29.83S
WARROAD        SUNNY     84  73  70 S6        29.83S HX  91
ROSEAU         SUNNY     82  73  74 SE9       29.82S
HALLOCK        SUNNY     84  72  65 S13G20    29.76F
THF RVR FALLS  MOSUNNY   82  72  69 SE9       29.80F
6HR MIN TEMP:  81; 6HR MAX TEMP:  84;

HALSTAD        NOT AVBL
FOSSTON        PTSUNNY   84  72  65 SE7       29.83F
BAUDETTE       SUNNY     83  67  58 S12       29.85F
6HR MIN TEMP:  83; 6HR MAX TEMP:  88;

WASKISH        MOSUNNY   82  68  61 SE7       29.86F
CROOKSTON      MOSUNNY   84  72  65 SE10G16   29.78F
$$
  *****  WEATHER ACROSS CENTRAL AND WEST MINNESOTA  *****

CITY           SKY/WX    TMP DP  RH WIND       PRES   REMARKS
BEMIDJI        PTSUNNY   81  70  68 SE10      29.87S
PARK RAPIDS    MOSUNNY   85  68  56 S15       29.86S
6HR MIN TEMP:  84; 6HR MAX TEMP:  89;

WADENA         SUNNY     82  70  65 S10G18    29.85S
DETROIT LAKES  MOSUNNY   84  68  58 S15       29.83F
MOORHEAD       SUNNY     84  72  65 SE13G21   29.78S
FERGUS FALLS   SUNNY     84  72  65 SE12G18   29.78F
ELBOW LAKE     FAIR      82  73  72 SE14G22   29.81F
6HR MIN TEMP:  83; 6HR MAX TEMP:  86;

MORRIS MN      SUNNY     82  73  74 SE14G22   29.80F
STAPLES        SUNNY     81  68  65 S9        29.86S
WHEATON        SUNNY     81  72  74 SE18      29.78F
$$
  *****  WEATHER ELSEWHERE ACROSS MINNESOTA  *****

CITY           SKY/WX    TMP DP  RH WIND       PRES   REMARKS
DULUTH         MOSUNNY   81  63  54 SE8       29.95S
6HR MIN TEMP:  81; 6HR MAX TEMP:  86;

INTRNTL FALLS  SUNNY     85  66  53 S5        29.88S
6HR MIN TEMP:  82; 6HR MAX TEMP:  87;

ELY            SUNNY     82  54  36 S6        29.95R
CLOQUET        MOSUNNY   81  63  54 SE5       29.94S
BRAINERD       SUNNY     83  70  64 SE12      29.88F
6HR MIN TEMP:  81; 6HR MAX TEMP:  86;

HIBBING        MOSUNNY   83  65  54 SE9       29.92S
6HR MIN TEMP:  83; 6HR MAX TEMP:  87;

ALEXANDRIA     PTSUNNY   83  72  69 SE13      29.87F
6HR MIN TEMP:  82; 6HR MAX TEMP:  87;

SAINT CLOUD    MOSUNNY   84  71  65 S12       29.88S
6HR MIN TEMP:  83; 6HR MAX TEMP:  88;

MINNEAPOLIS    MOSUNNY   84  72  67 SE12      29.89F
6HR MIN TEMP:  83; 6HR MAX TEMP:  86;

$$

  *****  WEATHER ACROSS SOUTH DAKOTA  *****

CITY           SKY/WX    TMP DP  RH WIND       PRES   REMARKS
SIOUX FALLS    MOSUNNY   84  71  65 S16G22    29.79F
6HR MIN TEMP:  83; 6HR MAX TEMP:  86;

BROOKINGS      SUNNY     82  70  65 SE15G22   29.81F
WATERTOWN      SUNNY     84  68  58 SE16G23   29.79F
6HR MIN TEMP:  84; 6HR MAX TEMP:  89;

HURON          MOSUNNY   85  75  72 SE14G28   29.71F HX  93
6HR MIN TEMP:  85; 6HR MAX TEMP:  90; 6HR PCP: TRACE;

SISSETON         N/A     84  75  74 SE14G23   29.75F HX  92
ABERDEEN       SUNNY     87  72  60 SE17      29.72S HX  93
6HR MIN TEMP:  87; 6HR MAX TEMP:  92;

MITCHELL       SUNNY     87  76  69 SE16      29.72F HX  97
PIERRE         SUNNY     92  66  42 SE25G33   29.62S HX  94
6HR MIN TEMP:  91; 6HR MAX TEMP:  96;

MOBRIDGE       SUNNY     92  71  50 SE25G32   29.63F HX  98
RAPID CITY     TSTM      69  62  78 MISG      29.66S
6HR MIN TEMP:  68; 6HR MAX TEMP:  94; 6HR PCP: TRACE;

$$

  *****  SOME WEATHER IN NEARBY STATES *****

CITY           SKY/WX    TMP DP  RH WIND       PRES   REMARKS
GLASGOW MT     CLOUDY    78  61  55 N15       29.57F
6HR MIN TEMP:  77; 6HR MAX TEMP:  82;

GREAT FALLS MT LGT RAIN  50  49  96 NW10      29.99S
6HR MIN TEMP:  52; 6HR MAX TEMP:  55; 6HR PCP:  0.13;

CHEYENNE WY    MOSUNNY   89  45  21 SW17G28   29.88S
6HR MIN TEMP:  86; 6HR MAX TEMP:  92;

SCOTTSBLUFF NE TSTM      72  64  76 NE18      29.71R
6HR MIN TEMP:  85; 6HR MAX TEMP:  95; 6HR PCP: TRACE;

OMAHA NE       PTSUNNY   85  74  69 SE20      29.85S HX  92
6HR MIN TEMP:  83; 6HR MAX TEMP:  91;

DES MOINES IA  PTSUNNY   77  69  76 SE10      29.90F
6HR MIN TEMP:  71; 6HR MAX TEMP:  77; 6HR PCP:  1.10;

DAVENPORT IA   CLOUDY    81  72  74 E6        29.97S
6HR MIN TEMP:  81; 6HR MAX TEMP:  86;

CHICAGO IL     CLOUDY    81  64  56 NE10      29.98R
6HR MIN TEMP:  81; 6HR MAX TEMP:  88;

EAU CLAIRE WI  MOSUNNY   84  67  56 SE13      29.94S
6HR MIN TEMP:  82; 6HR MAX TEMP:  86;

LA CROSSE WI   PTSUNNY   86  68  54 SE10      29.93S
6HR MIN TEMP:  85; 6HR MAX TEMP:  87;

$$

  *****  SOME NATIONAL WEATHER *****

CITY           SKY/WX    TMP DP  RH WIND       PRES   REMARKS


USA.gov is the U.S. government's official web portal to all federal, state and local government web resources and services.